[[{"header":{"parameterUnit":"m.s-1","parameterCategory":1,"la1":30.2991,"la2":30.254,"lo1":-89.0895,"lo2":-89.0444,"dy":0.0017,"dx":0.0017,"nx":28,"ny":28,"refTime":"2023-08-24T21:00:00:Z","depth":0,"parameterNumber":2,"parameterNumberName":"U-component_of_WINDS"},"data":[0,0,0,0,0,0,0,0,0,0,0,0,0,0,0,0,0,0,0,0,0,0,0,0,0,0,0,0,0,0,0,0,0,0,0,0,0,0,0,0,0,0,0,0,0,0,0,0,0,0,0,0,0,0,0,0,0,0,-2.8832,-2.8832,0,-2.8833,-2.8833,-2.8833,-2.876,-2.8758,-2.8756,-2.8754,-2.8757,-2.8759,-2.8761,0,0,0,0,0,0,0,0,0,0,0,0,0,-2.877,-2.8772,-2.8832,-2.8832,-2.8832,-2.8833,-2.8833,-2.8833,-2.876,-2.8758,-2.8755,-2.8753,-2.8757,-2.8759,-2.8761,0,0,0,0,0,0,0,0,0,0,0,0,0,-2.8787,-2.8772,-2.8832,-2.8795,-2.8792,-2.8833,-2.8833,-2.8833,-2.876,-2.8757,-2.8755,-2.8752,-2.8756,-2.8759,-2.8761,-2.8838,0,0,-2.877,-2.8771,0,0,0,0,0,0,0,0,-2.8786,-2.8789,-2.8801,-2.8798,-2.8794,-2.8793,-2.8812,-2.8835,-2.8761,-2.8773,-2.8754,-2.875,-2.8772,-2.8773,-2.878,-2.8838,-2.8838,-2.877,-2.8772,-2.8773,-2.8774,0,0,0,0,0,0,0,-2.8785,-2.8789,-2.8832,-2.8801,-2.8797,-2.878,-2.878,-2.8816,-2.8789,-2.8771,-2.8766,-2.8767,-2.8769,-2.8777,-2.8779,-2.8838,-2.877,-2.8773,-2.8775,-2.8776,-2.8961,-2.8964,0,0,0,0,0,0,-2.8788,-2.8788,-2.8832,-2.8832,-2.8783,-2.8784,-2.8783,-2.8797,-2.8788,-2.8784,-2.877,-2.8764,-2.8774,-2.8776,-2.8779,-2.8868,-2.8773,-2.8776,-2.8778,-2.8958,-2.8962,-2.8965,0,0,0,0,0,0,-2.8787,-2.8793,-2.8832,-2.8809,-2.8813,-2.8788,-2.8804,-2.8798,-2.8806,-2.8787,-2.8782,-2.8782,-2.8771,-2.8775,-2.8824,-2.8867,-2.8777,-2.878,-2.8954,-2.8959,-2.8964,-2.9047,0,0,0,0,0,0,-2.8786,-2.8793,-2.882,-2.881,-2.8814,-2.8876,-2.8807,-2.88,-2.881,-2.8803,-2.8797,-2.8793,-2.8769,-2.882,-2.8827,-2.887,-2.8782,-2.895,-2.8956,-2.8962,-2.9041,-2.9055,-2.9066,0,0,0,0,0,-2.8784,-2.8844,-2.8822,-2.8828,-2.8848,-2.8878,-2.8881,-2.8851,-2.8814,-2.8842,-2.8831,-2.8794,-2.8862,-2.8826,-2.8833,-2.8877,-2.8947,-2.8955,-2.8962,-2.9035,-2.9052,-2.9066,0,0,0,0,0,0,-2.886,-2.8842,-2.8817,-2.8876,-2.8879,-2.8866,-2.89,-2.887,-2.8884,-2.8877,-2.884,-2.884,-2.8895,-2.8891,-2.8851,-2.8952,-2.8898,-2.8907,-2.8952,-2.8968,-2.898,-2.8979,-2.8785,0,0,0,0,0,-2.8884,-2.8909,-2.8892,-2.8945,-2.8949,-2.8925,-2.8937,-2.8914,-2.8916,-2.8918,-2.8909,-2.8914,-2.8937,-2.8952,-2.8972,-2.9041,-2.9039,-2.9075,-2.9088,-2.9099,-2.9106,-2.9144,-2.916,-2.8989,-2.8989,-2.8989,0,0,-2.8932,-2.8926,-2.8944,-2.8961,-2.8961,-2.8989,-2.8926,-2.8958,-2.8979,-2.8923,-2.8968,-2.8963,-2.8966,-2.9026,-2.9051,-2.9024,-2.9154,-2.9108,-2.9117,-2.9118,-2.9153,-2.917,-2.9184,-2.8994,-2.8993,-2.8992,0,0,-2.9035,-2.9033,-2.9077,-2.9079,-2.908,-2.9064,-2.9076,-2.9068,-2.9062,-2.9107,-2.9066,-2.9092,-2.9131,-2.9135,-2.9143,-2.9252,-2.9219,-2.926,-2.9326,-2.9364,-2.9377,-2.9389,-2.9428,-2.9443,-2.9268,-2.9268,-2.9268,0,-2.9096,-2.9136,-2.9104,-2.914,-2.9149,-2.91,-2.9146,-2.915,-2.9158,-2.9166,-2.9135,-2.9185,-2.9184,-2.9245,-2.9272,-2.9279,-2.9292,-2.9259,-2.9378,-2.9389,-2.94,-2.9437,-2.9452,-2.9273,-2.9272,-2.9272,-2.9272,0,-2.9211,-2.924,-2.9276,-2.9285,-2.9298,-2.9339,-2.9315,-2.9333,-2.9311,-2.9299,-2.9347,-2.9344,-2.9363,-2.9377,-2.9355,-2.9435,-2.9418,-2.9384,-2.9329,-2.9422,-2.9456,-2.947,-2.928,-2.9278,-2.9277,-2.9276,0,0,-2.9358,-2.9352,-2.9365,-2.9369,-2.9369,-2.9391,-2.9431,-2.945,-2.9466,-2.9475,-2.9508,-2.9545,-2.9513,-2.9522,-2.9501,-2.9534,-2.9622,-2.9495,-2.9494,-2.9518,-2.9712,-2.9737,-2.9754,-2.9601,-2.9603,-2.9605,-2.9711,0,-2.9458,-2.9524,-2.9498,-2.9567,-2.9594,-2.955,-2.9585,-2.959,-2.9581,-2.9604,-2.9594,-2.9621,-2.9577,-2.9582,-2.9613,-2.9604,-2.966,-2.9597,-2.9632,-2.9633,-2.9631,-2.9771,-2.9798,-2.9898,-2.9724,-2.9727,-2.9728,0,-2.9582,-2.9596,-2.9667,-2.9664,-2.9675,-2.9706,-2.9722,-2.9745,-2.975,-2.9742,-2.9754,-2.9726,-2.9767,-2.9714,-2.9771,-2.9728,-2.9742,-2.9741,-2.9744,-2.9745,-2.9685,-2.9776,-2.9929,-2.9943,-2.9749,-2.9748,-2.9746,0,-2.9683,-2.972,-2.9767,-2.9772,-2.977,-2.9793,-2.9794,-2.9796,-2.981,-2.9825,-2.9834,-2.9854,-2.9865,-2.9882,-2.9862,-2.9825,-2.9923,-2.9867,-2.9917,-2.9918,-2.9938,-2.9936,-3.0094,-2.9949,-2.9949,-2.9948,-2.9948,0,-2.9796,-2.9841,-2.9812,-2.9842,-2.9892,-2.9864,-2.9915,-2.9911,-2.9914,-2.9943,-2.9907,-2.9936,-2.9907,-2.9934,-2.9919,-2.9969,-2.9974,-2.9969,-2.9964,-2.9972,-2.9972,-2.9979,-2.9971,-2.9952,-2.9951,-2.9951,-2.995,0,-2.9916,-2.9898,-2.9947,-2.9942,-2.9942,-2.9979,-2.9975,-3.0003,-2.9993,-3.003,-3.0037,-3.0022,-3.0052,-3.0034,-3.0064,-3.0054,-3.0119,-3.0105,-3.0117,-3.0113,-3.0163,-3.0159,-3.033,-3.0351,-3.0193,-3.0194,-3.0196,0,-2.9988,-3.0022,-3.0021,-3.0037,-3.004,-3.0067,-3.0082,-3.0057,-3.0073,-3.0084,-3.0111,-3.0138,-3.0157,-3.0207,-3.0199,-3.0223,-3.0209,-3.0268,-3.0212,-3.0219,-3.021,-3.0208,-3.0211,-3.0278,-3.028,-3.0282,-3.0283,0,-3.0119,-3.0109,-3.013,-3.015,-3.0168,-3.0182,-3.0193,-3.021,-3.0185,-3.0206,-3.0235,-3.0251,-3.0283,-3.031,-3.0331,-3.0333,-3.0305,-3.0301,-3.0313,-3.032,-3.0326,-3.0324,-3.0146,-3.0296,-3.0295,-3.0294,-3.0293,-3.0293,-3.0217,-3.0246,-3.025,-3.0275,-3.0282,-3.0294,-3.032,-3.0314,-3.0338,-3.0361,-3.0346,-3.0382,-3.039,-3.0415,-3.0421,-3.045,-3.0426,-3.0444,-3.0449,-3.0453,-3.046,-3.0323,-3.0453,-3.0453,-3.0453,-3.0452,-3.0452,0,-3.0345,-3.0347,-3.0371,-3.0388,-3.0409,-3.0381,-3.0393,-3.0413,-3.0444,-3.0454,-3.0474,-3.051,-3.0538,-3.0533,-3.0559,-3.0583,-3.0571,-3.059,-3.0587,-3.0589,-3.048,-3.0466,-3.06,-3.06,-3.06,-3.06,-3.06,-3.06,-3.0415,-3.0462,-3.0454,-3.0505,-3.0506,-3.054,-3.055,-3.0562,-3.0569,-3.061,-3.0633,-3.063,-3.0635,-3.0661,-3.0686,-3.0684,-3.0695,-3.0719,-3.0713,-3.0611,-3.0596,-3.0582,-3.0569,-3.0722,-3.0722,-3.0819,-3.082,-3.0821]},{"header":{"parameterUnit":"m.s-1","parameterCategory":1,"la1":30.2991,"la2":30.254,"lo1":-89.0895,"lo2":-89.0444,"dy":0.0017,"dx":0.0017,"nx":28,"ny":28,"refTime":"2023-08-24T21:00:00:Z","depth":0,"parameterNumber":3,"parameterNumberName":"V-component_of_WINDS"},"data":[0,0,0,0,0,0,0,0,0,0,0,0,0,0,0,0,0,0,0,0,0,0,0,0,0,0,0,0,0,0,0,0,0,0,0,0,0,0,0,0,0,0,0,0,0,0,0,0,0,0,0,0,0,0,0,0,0,0,3.0845,3.0846,0,3.0975,3.0976,3.0978,3.1086,3.1087,3.1089,3.109,3.1216,3.1218,3.1221,0,0,0,0,0,0,0,0,0,0,0,0,0,3.0684,3.0686,3.0844,3.0846,3.0848,3.0974,3.0976,3.0978,3.1086,3.1087,3.1089,3.109,3.1215,3.1218,3.1221,0,0,0,0,0,0,0,0,0,0,0,0,0,3.0778,3.0687,3.0844,3.0917,3.0925,3.0974,3.0976,3.0978,3.1086,3.1088,3.1089,3.1091,3.1215,3.1218,3.1221,3.1207,0,0,3.1232,3.1233,0,0,0,0,0,0,0,0,3.0772,3.0783,3.0905,3.0912,3.0921,3.1016,3.0966,3.1055,3.1085,3.1024,3.109,3.1092,3.1148,3.1157,3.1177,3.1212,3.1218,3.1232,3.1234,3.1235,3.1236,0,0,0,0,0,0,0,3.0766,3.0778,3.0896,3.0906,3.0916,3.0942,3.0957,3.0983,3.1074,3.103,3.1038,3.1052,3.1153,3.1174,3.1181,3.122,3.1232,3.1235,3.1237,3.1238,3.125,3.1248,0,0,0,0,0,0,3.0749,3.0772,3.0892,3.09,3.085,3.0943,3.096,3.0984,3.1074,3.109,3.1051,3.1057,3.1167,3.1177,3.1186,3.1174,3.1235,3.1239,3.1241,3.1252,3.125,3.1248,0,0,0,0,0,0,3.0745,3.0758,3.0886,3.0838,3.0857,3.0944,3.0969,3.0985,3.1007,3.109,3.1106,3.1056,3.1169,3.1181,3.1201,3.118,3.124,3.1243,3.1254,3.1251,3.1249,3.1151,0,0,0,0,0,0,3.074,3.0756,3.0753,3.0838,3.0859,3.0901,3.0968,3.0987,3.1013,3.1022,3.1099,3.1114,3.1171,3.1195,3.1204,3.1186,3.1246,3.1256,3.1252,3.1249,3.1156,3.1146,3.1136,0,0,0,0,0,3.0734,3.0718,3.0752,3.0766,3.0856,3.0899,3.0911,3.098,3.1011,3.1007,3.1061,3.1111,3.1182,3.1197,3.1208,3.119,3.1257,3.1253,3.125,3.1161,3.1148,3.1136,0,0,0,0,0,0,3.0626,3.0731,3.0769,3.0781,3.0831,3.0918,3.0915,3.0963,3.1003,3.101,3.1091,3.1107,3.1118,3.1157,3.1171,3.1181,3.1226,3.1224,3.1155,3.1143,3.1133,3.1122,3.1249,0,0,0,0,0,3.0604,3.0632,3.0722,3.0724,3.0747,3.0827,3.0848,3.0897,3.095,3.0971,3.1026,3.1075,3.1108,3.1128,3.1163,3.1163,3.1181,3.1157,3.1146,3.1138,3.1134,3.1137,3.1127,3.1235,3.1235,3.1235,0,0,3.0558,3.0619,3.0631,3.0704,3.0748,3.0773,3.0843,3.0867,3.0886,3.0974,3.0997,3.1039,3.1099,3.1109,3.1116,3.1141,3.1109,3.1133,3.1125,3.1127,3.1132,3.1122,3.1112,3.1232,3.1233,3.1233,0,0,3.0488,3.0537,3.0545,3.0588,3.0655,3.0709,3.071,3.079,3.0823,3.0848,3.0914,3.0937,3.0993,3.1033,3.106,3.1006,3.1053,3.1015,3.0961,3.0963,3.0954,3.0947,3.0927,3.0919,3.1012,3.1012,3.1012,0,3.0421,3.0465,3.0541,3.0562,3.0591,3.0675,3.0682,3.072,3.0793,3.0811,3.0839,3.0911,3.0957,3.0978,3.0965,3.0985,3.0988,3.1006,3.095,3.0943,3.0938,3.0919,3.0911,3.1007,3.1008,3.1008,3.1009,0,3.0379,3.0408,3.0406,3.0478,3.0507,3.052,3.0598,3.0618,3.0665,3.0714,3.0738,3.0797,3.0846,3.0855,3.0899,3.0881,3.0895,3.0935,3.0982,3.0921,3.0905,3.0898,3.1,3.1001,3.1003,3.1004,0,0,3.0242,3.0359,3.0356,3.039,3.0471,3.0494,3.0511,3.0561,3.0576,3.0625,3.064,3.0686,3.0725,3.0756,3.0806,3.0807,3.076,3.0848,3.085,3.0828,3.0743,3.0711,3.0702,3.0793,3.0792,3.0791,3.0738,0,3.0183,3.0221,3.0291,3.0305,3.0332,3.0413,3.0428,3.0478,3.0526,3.0554,3.0606,3.0637,3.0686,3.0705,3.0711,3.0765,3.0744,3.077,3.0806,3.0806,3.0787,3.0694,3.066,3.0607,3.0732,3.0731,3.0731,0,3.0119,3.0166,3.0183,3.0263,3.0277,3.0289,3.0341,3.0368,3.0427,3.0461,3.0497,3.0553,3.0574,3.0618,3.0648,3.0664,3.0683,3.0712,3.0711,3.0715,3.0763,3.0694,3.0591,3.0582,3.0722,3.0722,3.0723,0,3.0016,3.0082,3.0102,3.0128,3.0223,3.0229,3.0268,3.0329,3.0355,3.04,3.0417,3.0463,3.0487,3.0521,3.0587,3.0614,3.0609,3.0659,3.0636,3.0634,3.0629,3.0628,3.0526,3.0644,3.0644,3.0645,3.0645,0,2.9942,2.9948,3.0057,3.0068,3.0078,3.0159,3.0166,3.0213,3.0266,3.0287,3.036,3.0377,3.0465,3.0492,3.0544,3.056,3.057,3.0597,3.0611,3.059,3.0586,3.0602,3.0607,3.0643,3.0643,3.0643,3.0644,0,2.9827,2.99,2.9926,3.0014,3.0036,3.004,3.0115,3.0128,3.0181,3.0206,3.0217,3.0299,3.0335,3.0405,3.046,3.0495,3.0499,3.0523,3.0479,3.0487,3.046,3.0461,3.0363,3.0354,3.0478,3.0477,3.0476,0,2.9774,2.9781,2.9871,2.9892,2.9929,2.996,2.9988,3.0068,3.0093,3.0161,3.0166,3.0209,3.0247,3.03,3.0363,3.0406,3.0431,3.0394,3.0438,3.0417,3.0429,3.0427,3.0428,3.0383,3.0382,3.038,3.0379,0,2.9671,2.9708,2.9746,2.9796,2.9828,2.9871,2.9918,2.993,3.002,3.0045,3.0084,3.0114,3.0171,3.0212,3.0264,3.0303,3.0355,3.0365,3.0362,3.034,3.0313,3.0326,3.0451,3.0366,3.0368,3.0369,3.0369,3.037,2.9585,2.9596,2.9661,2.9701,2.9746,2.9788,2.9805,2.9862,2.9896,2.9951,2.9996,3.0031,3.009,3.0166,3.0202,3.0229,3.0254,3.025,3.0248,3.0245,3.0236,3.0311,3.0239,3.0239,3.024,3.024,3.0241,0,2.9486,2.9532,2.9569,2.9633,2.9664,2.9714,2.9769,2.9791,2.9822,2.9874,2.9911,2.9955,2.9995,3.0063,3.0108,3.0117,3.0142,3.0126,3.0125,3.0133,3.0212,3.021,3.0105,3.0105,3.0105,3.0105,3.0105,3.0105,2.9437,2.9458,2.9502,2.9545,2.9592,2.9629,2.9656,2.9695,2.9737,2.9784,2.9819,2.9864,2.9922,2.9972,3.0011,3.003,3.0042,3.0018,3.0044,3.0115,3.0128,3.014,3.0138,3.0021,3.002,2.9963,2.9963,2.9962]}]]